Regional Weather Roundup
Issued by NWS

Home | Current Version | Previous Version | Text Only | Print | Product List | Glossary On
Versions: 1 2 3 4 5 6 7 8 9 10 11 12 13 14 15 16 17 18 19 20 21 22 23 24 25 26 27 28 29 30 31 32 33 34 35 36 37 38 39 40 41 42 43 44 45 46 47 48 49 50
000
ASUS44 KEWX 291303
RWRTX
SOUTH TEXAS REGIONAL WEATHER ROUNDUP
NATIONAL WEATHER SERVICE AUSTIN/SAN ANTONIO TX
800 AM CDT FRI MAY 29 2015

NOTE: "FAIR" INDICATED FEW OR NO CLOUDS BELOW 12,000 FEET WITH NO
SIGNIFICANT WEATHER AND/OR OBSTRUCTIONS TO VISIBILITY.

* - THESE STATIONS ARE NOT NWS OR FAA STATIONS...AND ARE NOT SUBJECT
    TO NWS AND FAA QUALITY CONTROL.

TXZ171-172-183>190-291400-
TEXAS HILL COUNTRY AND EDWARDS PLATEAU

CITY           SKY/WX    TMP DP  RH WIND       PRES   REMARKS
JUNCTION       SUNNY     62  60  93 NW3       29.99R
*LLANO         CLOUDY    63  63 100 CALM      29.98R
BURNET         CLOUDY    63  62  97 N8        29.98R
*HORSESHOE BAY CLOUDY    64  62  95 NW5       29.95R
*KERRVILLE     MOSUNNY   61  59  94 N5        29.99R
*FREDERICKSBRG CLOUDY    63  60  90 SW3       29.97R
*ROCKSPRINGS   FOG      N/A N/A N/A SW7       30.00R VSB 3/4
*BOERNE STAGE    N/A     61  59  94 W7        29.96R
*CASTROVILLE   CLOUDY    64  63  97 NW7       29.97R
HONDO          MOSUNNY   63  61  93 W9        29.98R
*UVALDE        MOSUNNY   64  63  96 W3        29.98R
DEL RIO        SUNNY     65  62  90 SE7       29.95R
LAUGHLIN AFB   SUNNY     65  63  92 SE8       29.97R
CARRIZO SPRGS  PTSUNNY   64  63  94 CALM      29.96R
$$

TXZ173-191>194-202-209-217>225-228-291400-
CENTRAL AND SOUTH CENTRAL TEXAS

CITY           SKY/WX    TMP DP  RH WIND       PRES   REMARKS
GEORGETOWN     CLOUDY    66  64  94 CALM      29.96R
AUSTIN/BERGSTM CLOUDY    65  65 100 NW6       29.93R
AUSTIN/MABRY   CLOUDY    66  64  93 CALM      29.93R
*AUSTIN/EXEC   CLOUDY    64  64 100 CALM      29.94R
*LAGO VISTA    CLOUDY    64  63  94 N5        29.96R
SAN MARCOS     SUNNY     64  63  94 N8        29.92R
NEW BRAUNFELS  CLOUDY    67  65  93 W7        29.90R
RANDOLPH AFB   PTSUNNY   67  63  88 W6        29.93R
PT SAN ANTONIO CLOUDY    65  64  94 W6        29.93R
SAN ANTONIO    CLOUDY    67  62  84 W9        29.93R
STINSON FIELD  CLOUDY    67  63  87 W7        29.92R
*PLEASANTON    RAIN      67  63  85 S6        29.90R
*LA GRANGE     CLOUDY    68  66  94 S13G18    29.85F
*GIDDINGS      CLOUDY    65  64  96 S3        29.90F
*GONZALES      CLOUDY    67  66  96 SE23G36   29.79F
$$

TXZ163>164-176>182-195>201-210>213-226-227-235-291400-
SOUTHEAST TEXAS

CITY           SKY/WX    TMP DP  RH WIND       PRES   REMARKS
COLLEGE STN    CLOUDY    67  65  93 E14       29.83F
*BRYAN         CLOUDY    66  66 100 SE13      29.87F
*CALDWELL      CLOUDY    64  64 100 SE10      29.90S
*CROCKETT      NOT AVBL
*BRENHAM       CLOUDY    68  67  97 SE7       29.90F
HUNTSVILLE     CLOUDY    70  68  93 E5        29.88F
CONROE         CLOUDY    69  67  93 E8        29.92F
HOUSTON BUSH   CLOUDY    70  68  93 SE10      29.95F
HOUSTON HOBBY  CLOUDY    71  68  90 E6        29.97F
*HOUSTON SW AP CLOUDY    68  68 100 CALM      29.97F
PEARLAND       CLOUDY    71  68  90 SE9       30.00F
HOUSTON HOOKS  CLOUDY    70  68  93 SE8       29.94F
ELLINGTON FLD  LGT RAIN  70  70 100 E6        30.00R
SUGAR LAND     CLOUDY    70  67  90 S7        29.96F
*HOUSTON EXEC  CLOUDY    68  66  94 S14       29.96S
*CLEVELAND MUN CLOUDY    73  71  95 S14       30.01R
*WHARTON       CLOUDY    68  66  94 E7        29.96F
*COLUMBUS      PTSUNNY   67  66  97 SE7       29.92F
$$

TXZ214>216-236>238-291400-
THE UPPER TEXAS COAST

CITY           SKY/WX    TMP DP  RH WIND       PRES   REMARKS
*ORANGE        CLOUDY    79  75  88 CALM      30.02F
PORT ARTHUR    CLOUDY    80  76  87 S10       30.00S
GALVESTON      LGT RAIN  74  69  85 W22G33    30.03R
ANGLETON       CLOUDY    66  66 100 SW5       30.00F
*BAY CITY      CLOUDY    69  68  98 CALM      30.00F
PALACIOS       CLOUDY    69  66  90 E6        29.97F
$$

TXZ229>234-239>247-291400-
TEXAS COASTAL BEND AND RIO GRANDE PLAINS

CITY           SKY/WX    TMP DP  RH WIND       PRES   REMARKS
VICTORIA       CLOUDY    68  67  96 S9        29.98F
*BEEVILLE      LGT RAIN  66  66 100 E16       29.93F
ROCKPORT       LGT RAIN  70  65  84 CALM      30.03R
*PORT ARANSAS  RAIN      69  66  89 N8        30.05R
*PORT LAVACA   CLOUDY    69  67  94 S6        29.99F
*INGLESIDE     DRIZZLE   70  66  86 N7        30.04R
CORPUS CHRISTI TSTM      69  64  84 N12       30.04R
CORPUS NAS     CLOUDY    72  65  78 N17       30.04R
*ROBSTOWN      RAIN      69  68  97 N6        30.04S
ALICE          CLOUDY    68  64  87 E13G24    29.95F
KINGSVILLE NAS TSTM      69  67  93 E8        30.02F
COTULLA        CLOUDY    66  64  93 CALM      29.95R
*FAITH RANCH     N/A     66  64  94 SW9       29.97F
LAREDO         SUNNY     66  64  93 E10       30.01R
$$

TXZ248>255-291400-
DEEP SOUTH TEXAS

CITY           SKY/WX    TMP DP  RH WIND       PRES   REMARKS
BROWNSVILLE    CLOUDY    80  76  87 CALM      29.97R FOG
PORT ISABEL    PTSUNNY   81  77  88 E3        29.97R FOG
*SOUTH PADRE     N/A    -24 -24 100 S7        29.98R WCI -42
HARLINGEN      PTSUNNY   79  77  94 N7        29.98R FOG
*HEBBRONVILLE    N/A     65  63  94 NW10      30.02R
MCALLEN        TSTM      70  66  87 N23G32    30.03R FOG
*WESLACO       CLOUDY    77  75  91 N8        29.98R FOG
FALFURRIAS     CLOUDY    66  64  94 E14G20    29.99F
EDINBURG       CLOUDY    68  64  86 N21G36    30.03R
*ZAPATA        MOSUNNY   66  65  95 E6        29.99F
$$

TXZ213>215-236>238-242>244-246-247-251-254-255-291400-
CMAN STATIONS

STATION/POSITION TIME  TEMP    WIND        PRES    WAVE
                       AIR SEA DIR/SP/G            HT/PER
                 (UTC) (F)     (DEG/KT/KT) (MB)    (FT/S)
$$

GMZ080-GMZ150>470-291400-
OFFSHORE BUOY REPORTS

STATION/POSITION TIME  TEMP    WIND        PRES    WAVE
                       AIR SEA DIR/SP/G            HT/PER
                 (UTC) (F)     (DEG/KT/KT) (MB)    (FT/S)
$$


USA.gov is the U.S. government's official web portal to all federal, state and local government web resources and services.